SCP
0 0 0 0 0 0 0 0 0 0 0 0 0 0 0 0 0 0 0 1 1 1 1 1 1 1 1 1 1 1 1 1 1 1 1 1 1 1 1 2 2 2 2
0 0 0 0 0 0 0 0 0 0 0 0 0 0 0 0 0 0 0 0 1 1 2 2 2 2 1 1 1 1 1 1 1 1 1 1 1 1 2 2 2 2 2
0 0 0 0 0 0 0 0 0 0 0 0 0 0 0 0 0 0 0 0 0 1 1 2 2 2 2 1 1 1 1 1 1 1 1 1 1 1 1 1 2 2 2
0 0 0 0 0 0 0 0 0 0 0 0 0 0 0 0 0 0 0 0 0 0 1 1 2 2 1 1 1 1 1 1 1 1 1 1 1 1 1 1 1 1 2
0 0 0 0 0 0 0 0 0 0 0 0 0 0 0 0 0 0 0 0 0 0 0 1 1 1 1 1 1 0 0 0 0 0 0 0 1 1 1 1 1 1 1
0 0 0 0 0 0 0 0 0 0 0 0 0 0 0 0 0 0 0 0 0 0 0 0 0 0 0 0 0 0 0 0 0 0 0 0 0 0 0 0 0 0 1
0 0 0 0 0 0 0 0 0 0 0 0 0 0 0 0 0 0 0 0 0 0 0 0 0 0 0 0 0 0 0 0 0 0 0 0 0 0 0 0 0 0 0
0 0 0 0 0 0 0 0 0 0 0 0 0 0 0 0 0 0 0 0 0 0 0 0 0 0 0 0 0 0 0 0 0 0 0 0 0 0 0 0 0 0 0
0 0 0 0 0 0 0 0 0 0 0 0 0 0 0 0 0 0 0 0 0 0 0 0 0 0 0 0 0 0 0 0 0 0 0 0 0 0 0 0 0 0 0
0 0 0 0 0 0 0 0 0 0 0 0 0 0 0 0 0 0 0 0 0 0 0 0 0 0 0 0 0 0 0 0 0 0 0 0 0 0 0 0 0 0 0
0 0 0 0 0 0 0 0 0 0 0 0 0 0 0 0 0 0 0 0 0 0 0 0 0 0 0 0 0 0 0 0 0 0 0 0 0 0 0 0 0 0 0
0 0 0 0 0 0 0 0 0 0 0 0 0 0 0 0 0 0 0 0 0 0 0 0 0 0 0 0 0 0 0 0 0 0 0 0 0 0 0 0 0 0 0
0 0 0 0 0 0 0 0 0 0 0 0 0 0 0 0 0 0 0 0 0 0 0 0 0 0 0 0 0 0 0 0 0 0 0 0 0 0 0 0 0 0 0
0 0 0 0 0 0 0 0 0 0 0 0 0 0 0 0 0 0 0 0 0 0 0 0 0 0 0 0 0 0 0 0 0 0 0 0 0 0 0 0 0 0 0
0 0 0 0 0 0 0 0 0 0 0 0 0 0 0 0 0 0 0 0 0 0 0 0 0 0 0 0 0 0 0 0 0 0 0 0 0 0 0 0 0 0 0
0 0 0 0 0 0 0 0 0 0 0 0 0 0 0 0 0 0 0 0 0 0 0 0 0 0 0 0 0 0 0 0 0 0 0 0 0 0 0 0 0 0 0
0 0 0 0 0 0 0 0 0 0 0 0 0 0 0 0 0 0 0 0 0 0 0 0 0 0 0 0 0 0 0 0 0 0 0 0 0 0 0 0 0 0 0
0 0 0 0 0 0 0 0 0 0 0 0 0 0 0 0 0 0 0 0 0 0 0 0 0 0 0 0 0 0 0 0 0 0 0 0 0 0 0 0 0 0 0
0 0 0 0 0 0 0 0 0 0 0 0 0 0 0 0 0 0 0 0 0 0 0 0 0 0 0 0 0 0 0 0 0 0 0 0 0 0 0 0 0 0 0
0 0 0 0 0 0 0 0 0 0 0 0 0 0 0 0 0 0 0 0 0 0 0 0 0 0 0 0 0 0 0 0 0 0 0 0 0 0 0 0 0 0 0
0 0 0 0 0 0 0 0 0 0 0 0 0 0 0 0 0 0 0 0 0 0 0 0 0 0 0 0 0 0 0 0 0 0 0 0 0 0 0 0 0 0 0
0 0 0 0 0 0 0 0 0 0 0 0 0 0 0 0 0 0 0 0 0 0 0 0 0 0 0 0 0 0 0 0 0 0 0 0 0 0 0 0 0 0 0
0 0 0 0 0 0 0 0 0 0 0 0 0 0 0 0 0 0 0 0 0 0 0 0 0 0 0 0 0 0 0 0 0 0 0 0 0 0 0 0 0 0 0
0 0 0 0 0 0 0 0 0 0 0 0 0 0 0 0 0 0 0 0 0 0 0 0 0 0 0 0 0 0 0 0 0 0 0 0 0 0 0 0 0 0 0
0 0 0 0 0 0 0 0 0 0 0 0 0 0 0 0 0 0 0 0 0 0 0 0 0 0 0 0 0 0 0 0 0 0 0 0 0 0 0 0 0 0 0
0 0 0 0 0 0 0 0 0 0 0 0 0 0 0 0 0 0 -0 -0 -0 -0 0 0 0 0 0 0 0 0 0 0 0 0 0 0 0 0 0 0 0 0 0
Wind_Speed
6 5 4 4 4 3 3 3 2 2 2 1 0 2 3 2 2 2 3 10 11 11 12 13 13 13 12 11 10 9 9 8 7 6 5 5 5 6 7 8 8 9 11
6 5 4 3 3 4 4 3 3 3 2 2 3 4 4 3 2 1 2 4 9 10 11 12 13 13 12 11 9 8 7 6 6 5 4 4 4 5 6 7 7 8 9
6 5 4 3 2 3 4 3 4 4 4 4 4 5 4 4 3 2 1 2 4 8 12 12 12 12 11 10 9 8 6 5 6 6 6 6 6 6 6 7 7 7 8
7 6 5 3 3 3 3 4 3 4 4 4 3 4 4 4 5 4 3 2 3 4 6 10 11 11 10 10 9 8 8 8 8 8 8 9 8 8 7 8 8 8 8
7 6 4 3 4 4 3 4 4 3 3 4 3 3 3 4 4 5 5 5 4 3 3 5 6 7 8 8 8 9 9 10 10 10 11 11 10 9 8 8 9 10 10
7 6 5 5 5 5 4 4 4 4 3 3 3 4 3 3 3 3 4 4 5 6 5 4 4 4 6 6 7 9 10 10 11 12 12 12 12 10 10 10 10 11 12
8 7 6 5 5 4 4 3 3 4 4 3 3 4 4 3 3 3 3 4 6 6 6 5 4 3 4 8 9 10 11 12 13 14 14 14 12 11 10 11 11 12 13
8 8 7 5 5 5 5 5 3 2 3 4 2 2 4 5 4 3 3 4 5 5 6 6 5 5 4 3 7 13 13 13 15 16 16 16 15 14 13 12 12 13 14
8 8 8 7 6 5 5 5 4 4 2 3 3 3 2 2 4 4 3 4 5 4 5 5 6 5 5 3 4 8 14 14 15 16 17 17 16 15 15 15 14 15 15
7 7 7 7 6 5 5 4 4 3 3 2 2 2 2 3 1 4 5 4 4 4 4 5 5 4 4 3 5 11 14 14 14 16 17 18 19 18 18 18 17 16 16
6 7 7 6 6 4 4 4 3 3 2 2 1 1 1 1 1 2 4 5 5 4 3 4 4 4 5 4 3 8 14 14 15 16 16 17 19 20 19 18 18 18 18
5 6 7 6 5 4 3 3 3 3 1 1 1 1 1 1 2 2 3 4 5 5 5 4 4 4 5 4 8 16 17 16 15 15 16 17 18 19 19 19 19 19 19
4 5 5 4 4 3 3 2 2 1 1 1 2 2 2 3 3 3 3 4 4 4 4 4 4 4 6 4 6 17 17 18 16 14 15 17 18 19 20 20 20 20 20
4 5 5 4 3 3 2 2 1 1 1 2 4 4 3 4 4 4 4 4 5 5 4 6 4 5 5 5 9 16 10 17 17 16 16 18 20 20 21 21 21 21 20
5 5 4 3 2 2 2 1 2 3 3 3 4 5 4 4 4 4 4 4 4 8 7 4 4 4 5 5 10 7 6 14 20 20 20 20 21 22 22 22 22 22 21
4 4 3 2 1 1 2 1 2 3 3 3 3 3 3 3 3 3 3 3 4 5 8 3 4 5 6 8 14 9 7 21 22 23 23 22 22 22 22 23 23 23 22
4 3 2 1 1 3 4 4 4 5 5 4 4 4 5 4 3 4 4 4 4 4 9 7 4 4 6 8 9 8 8 8 10 20 22 21 20 20 20 20 20 20 20
4 4 4 6 7 8 7 6 6 5 5 5 5 5 6 6 6 5 4 5 5 5 6 11 6 4 6 7 8 9 10 10 7 15 19 19 18 17 16 16 16 16 16
7 8 8 8 7 6 5 4 4 4 4 5 5 6 7 7 7 6 6 6 6 7 6 8 8 5 5 6 7 9 10 8 10 12 15 16 16 15 13 12 13 13 13
8 7 7 6 5 4 4 3 3 4 5 6 6 6 7 7 8 8 7 7 7 7 7 8 9 7 7 7 6 7 8 6 8 9 12 13 14 15 14 13 13 13 13
7 5 5 4 3 2 2 2 3 5 6 7 8 7 8 12 15 11 9 7 7 7 7 8 9 8 7 6 6 6 9 8 8 7 7 8 7 6 7 11 14 14 13
5 5 4 3 2 1 2 5 6 5 6 7 8 9 10 11 13 18 20 19 17 12 9 9 8 9 9 8 7 7 8 9 7 4 5 7 5 6 6 6 11 13 12
4 4 3 2 2 3 4 6 10 7 7 7 8 8 9 10 13 10 14 18 17 19 19 12 10 9 9 8 8 9 9 9 9 6 5 7 6 7 7 8 13 13 13
3 2 2 3 2 3 5 7 11 7 7 8 8 9 9 10 11 12 12 12 11 11 12 9 8 9 9 8 8 8 9 8 7 7 6 5 3 5 5 5 10 12 11
3 3 3 4 3 4 6 7 9 5 6 8 9 9 10 10 13 16 12 11 11 9 10 11 10 10 12 12 9 6 5 5 5 4 2 3 2 2 2 3 4 8 10
3 3 4 4 4 3 6 9 10 4 6 8 8 9 12 11 14 15 10 8 9 8 8 8 8 7 6 6 7 5 4 5 4 3 2 2 2 2 3 2 1 2 4
Wind_Direction
194 191 195 194 200 191 190 204 204 193 186 195 102 78 79 96 142 181 211 209 211 216 215 213 214 217 218 216 216 215 215 220 224 227 232 239 246 248 243 239 233 227 221
187 186 186 185 188 178 169 164 148 127 100 77 53 47 54 63 79 195 253 246 239 235 231 228 228 228 228 225 222 222 222 225 231 238 244 251 261 269 269 262 254 246 237
165 154 149 156 162 145 131 113 99 82 66 47 31 21 24 18 17 16 314 282 280 266 255 245 239 235 235 234 231 232 236 240 247 252 258 261 265 270 276 276 272 265 255
142 133 132 132 125 111 105 99 84 73 55 39 15 1 6 5 1 351 349 326 299 282 275 263 249 240 239 240 241 241 248 254 257 260 264 267 268 273 279 282 280 277 272
125 120 112 99 91 80 74 79 62 70 52 26 360 3 4 350 342 347 352 353 347 331 313 298 285 263 253 254 258 263 266 268 268 268 267 268 268 271 276 284 290 287 283
106 100 89 76 76 75 62 64 67 54 55 27 5 354 330 327 352 14 20 24 17 12 7 7 3 358 354 335 312 299 290 283 279 277 275 273 271 271 272 279 288 291 291
95 88 83 69 67 72 68 71 71 56 36 24 33 352 333 348 28 50 37 32 18 10 11 15 12 10 356 349 337 322 308 297 289 283 280 278 275 269 267 274 281 284 287
86 90 87 80 69 75 60 50 58 65 30 32 68 42 352 344 351 14 15 29 13 6 9 12 14 9 359 352 342 339 325 313 298 289 283 280 277 269 265 264 270 276 280
78 84 86 83 74 78 77 65 62 79 57 26 50 101 92 297 315 323 351 22 13 11 2 1 14 10 7 357 339 338 334 327 311 297 289 282 276 271 267 263 264 269 273
82 86 86 83 81 82 85 79 75 79 87 50 32 52 133 177 218 313 326 342 358 2 350 349 346 340 343 337 335 340 338 335 325 313 300 289 281 273 267 264 262 264 268
93 96 91 88 89 87 91 88 85 82 100 122 107 44 41 46 130 175 288 312 321 310 302 304 306 308 309 307 306 313 326 326 326 320 311 301 291 279 270 264 260 259 262
87 91 93 92 96 99 101 104 95 90 109 145 179 185 171 215 252 221 247 272 285 291 295 292 293 291 292 291 297 310 309 309 310 309 309 307 299 292 281 270 263 260 261
102 99 100 100 102 106 107 106 87 60 264 248 239 236 226 225 220 222 243 265 265 270 280 280 272 280 290 290 297 303 302 300 297 298 298 298 295 291 286 279 273 265 262
118 117 111 111 115 122 125 130 148 262 259 254 252 245 244 247 234 230 237 262 284 278 258 261 270 265 275 282 283 295 291 295 294 293 291 290 288 284 281 276 273 268 262
115 115 121 127 139 159 190 205 247 268 275 271 269 269 264 266 265 255 245 234 262 291 287 256 263 261 267 271 281 282 274 289 294 291 287 284 281 278 275 270 267 264 259
109 118 122 140 181 245 270 280 292 314 333 332 323 323 308 295 291 281 270 260 243 267 285 252 249 261 278 291 294 292 285 294 292 289 285 280 276 272 269 265 261 259 255
106 103 102 105 29 19 25 36 35 31 28 9 357 345 322 309 296 290 281 270 262 255 279 283 251 264 272 277 288 285 281 275 276 281 282 280 276 271 267 264 259 255 252
72 64 63 65 70 69 62 58 42 28 13 350 333 325 313 311 300 286 277 268 263 252 261 283 282 270 268 271 275 279 289 287 279 285 285 284 283 278 271 264 258 251 245
65 65 74 81 81 76 61 48 34 12 350 326 314 307 301 300 294 287 279 271 266 269 256 269 279 269 268 274 280 283 283 281 284 286 287 286 285 286 282 270 259 251 242
72 73 80 89 91 85 68 36 12 353 332 315 305 297 292 288 283 282 283 274 273 273 268 269 275 274 270 268 266 276 284 275 277 282 283 281 281 283 282 278 265 251 241
73 78 86 97 107 94 53 22 353 341 324 314 309 302 297 304 307 307 304 294 287 280 277 275 278 278 275 272 268 266 278 280 273 264 268 269 268 266 270 272 269 258 243
61 62 67 69 40 16 344 353 350 327 315 311 310 308 306 305 310 313 310 306 300 293 289 281 280 278 278 271 271 273 276 280 280 251 250 265 254 257 253 243 251 252 246
52 48 40 26 355 313 320 338 340 332 313 306 303 304 310 311 314 304 304 305 300 294 290 285 283 281 278 276 277 279 275 276 276 270 262 266 251 253 250 250 248 243 240
39 26 11 2 346 326 334 339 335 329 309 303 301 298 299 304 308 312 310 302 295 292 289 288 275 276 277 277 274 278 283 282 274 271 258 262 248 246 250 240 243 239 234
19 5 3 8 9 347 348 341 341 319 309 308 305 305 307 307 310 317 316 309 306 304 304 298 289 285 285 287 289 288 286 292 295 285 256 261 272 272 263 248 238 231 226
17 15 20 22 20 352 341 342 343 320 315 315 311 310 312 312 316 321 320 316 316 317 317 317 312 307 300 297 303 299 305 302 301 291 321 311 287 293 292 279 244 225 225